Tracking 30743 objects as of 23-Jun-2025
HD Live streaming from Space Station
objects crossing your sky now

APRIZESAT 1

Track APRIZESAT 1 now!
10-day predictions
APRIZESAT 1 is classified as:


NORAD ID: 28372
Int'l Code: 2004-025G
Perigee: 696.1 km
Apogee: 760.0 km
Inclination: 98.6 °
Period: 99.2 minutes
Semi major axis: 7099 km
RCS: 0.0588 m2 (small)
Launch date: June 29, 2004
Source: United States (US)
Launch site: TYURATAM MISSILE AND SPACE COMPLEX (TTMTR)

Uplink (MHz):
Downlink (MHz):
Beacon (MHz):
Mode:
Call sign:
Status: Unknown


Messaging services.
Your satellite tracking list
Your tracking list is empty




NASA's NSSDC Master Catalog

Two Line Element Set (TLE):
1 28372U 04025G   25173.69611245  .00000195  00000-0  60304-4 0  9997
2 28372  98.6230 169.7639 0045013 166.7014 193.5378 14.51461978109799
Source of the keplerian elements: AFSPC